TimeEDT,TemperatureF,Dew PointF,Humidity,Sea Level PressureIn,VisibilityMPH,Wind Direction,Wind SpeedMPH,Gust SpeedMPH,PrecipitationIn,Events,Conditions,WindDirDegrees,DateUTC
12:52 AM,42.1,39.0,89,29.95,10.0,Calm,Calm,-,N/A,,Clear,0,2012-10-17 04:52:00
1:52 AM,42.1,39.0,89,29.96,10.0,Calm,Calm,-,N/A,,Scattered Clouds,0,2012-10-17 05:52:00
2:52 AM,41.0,39.0,93,29.96,10.0,Calm,Calm,-,N/A,,Mostly Cloudy,0,2012-10-17 06:52:00
3:52 AM,39.0,37.0,93,29.96,10.0,Calm,Calm,-,N/A,,Mostly Cloudy,0,2012-10-17 07:52:00
4:52 AM,39.0,37.0,93,29.96,10.0,Calm,Calm,-,N/A,,Mostly Cloudy,0,2012-10-17 08:52:00
5:52 AM,37.9,37.0,97,29.98,10.0,Calm,Calm,-,N/A,,Scattered Clouds,0,2012-10-17 09:52:00
6:52 AM,37.9,36.0,93,29.99,9.0,Calm,Calm,-,N/A,,Mostly Cloudy,0,2012-10-17 10:52:00
7:52 AM,37.9,37.0,97,30.00,7.0,Calm,Calm,-,N/A,,Mostly Cloudy,0,2012-10-17 11:52:00
8:52 AM,45.0,42.1,90,30.02,7.0,Calm,Calm,-,0.01,,Mostly Cloudy,0,2012-10-17 12:52:00
9:52 AM,50.0,43.0,77,30.02,7.0,Calm,Calm,-,N/A,,Mostly Cloudy,0,2012-10-17 13:52:00
10:52 AM,57.0,44.1,62,30.03,10.0,Calm,Calm,-,N/A,,Mostly Cloudy,0,2012-10-17 14:52:00
11:52 AM,61.0,42.1,50,30.00,10.0,South,9.2,-,N/A,,Scattered Clouds,190,2012-10-17 15:52:00
12:52 PM,64.0,43.0,46,29.98,10.0,SSW,10.4,-,N/A,,Mostly Cloudy,200,2012-10-17 16:52:00
1:52 PM,64.9,45.0,48,29.95,10.0,South,5.8,-,N/A,,Mostly Cloudy,180,2012-10-17 17:52:00
2:52 PM,66.9,44.1,44,29.94,10.0,SSW,6.9,-,N/A,,Mostly Cloudy,200,2012-10-17 18:52:00
3:52 PM,66.9,45.0,45,29.92,10.0,South,6.9,-,N/A,,Mostly Cloudy,180,2012-10-17 19:52:00
4:52 PM,66.9,46.0,47,29.92,10.0,SE,9.2,-,N/A,,Scattered Clouds,130,2012-10-17 20:52:00
5:52 PM,64.9,46.9,52,29.92,10.0,SE,9.2,-,N/A,,Partly Cloudy,140,2012-10-17 21:52:00
6:52 PM,60.1,48.0,64,29.93,10.0,SE,4.6,-,N/A,,Partly Cloudy,130,2012-10-17 22:52:00
7:52 PM,57.9,48.0,70,29.94,10.0,SE,5.8,-,N/A,,Clear,130,2012-10-17 23:52:00
8:52 PM,59.0,48.9,69,29.94,10.0,SE,8.1,-,N/A,,Clear,130,2012-10-18 00:52:00
9:52 PM,57.0,50.0,77,29.94,10.0,SE,10.4,-,N/A,,Clear,140,2012-10-18 01:52:00
10:52 PM,57.0,51.1,81,29.93,10.0,SSE,6.9,-,N/A,,Partly Cloudy,160,2012-10-18 02:52:00
11:52 PM,55.9,50.0,80,29.93,10.0,SSE,5.8,-,N/A,,Partly Cloudy,160,2012-10-18 03:52:00